DW9572 Weather Reports


Display with metric or nautical units.
time (UTC)temp
F
wind
direction
speed
MPH
gust
MPH
rain 1hr
in
rain 24hr
in
rain mn
in
humidity
%
barometer
mb
20260504201525 85 39 9.0 15.0 0.00 0.00 0.00 22 1006.1
20260504200100 85 85 10.0 17.0 0.00 0.00 0.00 22 1006.2
20260504194606 84 94 14.0 19.0 0.00 0.00 0.00 21 1006.3
20260504193052 84 71 9.0 18.0 0.00 0.00 0.00 22 1006.5
20260504191642 83 25 9.0 19.0 0.00 0.00 0.00 22 1006.6
20260504190041 83 60 9.0 17.0 0.00 0.00 0.00 22 1006.8
20260504184537 83 32 9.0 19.0 0.00 0.00 0.00 23 1006.8
20260504183035 82 75 14.0 22.0 0.00 0.00 0.00 23 1006.9
20260504181534 81 89 12.0 18.0 0.00 0.00 0.00 23 1007.0
20260504180033 81 39 10.0 14.0 0.00 0.00 0.00 23 1007.1
20260504174530 81 98 9.0 19.0 0.00 0.00 0.00 27 1007.2
20260504173020 79 92 5.0 11.0 0.00 0.00 0.00 28 1007.2
20260504171505 78 87 1.0 8.0 0.00 0.00 0.00 34 1007.3
20260504081520 65 95 0.0 3.0 0.00 0.00 0.00 45 1006.3
20260504044539 74 287 3.0 6.0 0.00 0.00 0.00 31 1006.6
20260504043034 75 300 4.0 6.0 0.00 0.00 0.00 30 1006.6
20260504041511 77 293 5.0 6.0 0.00 0.00 0.00 28 1006.5
20260504040010 78 304 4.0 6.0 0.00 0.00 0.00 27 1006.4
20260504034559 78 308 4.0 6.0 0.00 0.00 0.00 28 1006.4
20260504033056 79 314 0.0 0.0 0.00 0.00 0.00 28 1006.4
20260504031534 79 327 0.0 0.0 0.00 0.00 0.00 29 1006.3
20260504030034 79 315 0.0 0.0 0.00 0.00 0.00 29 1006.3
20260504024519 80 304 0.0 0.0 0.00 0.00 0.00 30 1006.3
20260504023014 82 122 0.0 0.0 0.00 0.00 0.00 31 1006.4
20260504021555 83 122 0.0 0.0 0.00 0.00 0.00 32 1006.4
20260504020053 84 131 0.0 1.0 0.00 0.00 0.00 29 1006.5
20260504014536 84 155 4.0 5.0 0.00 0.00 0.00 27 1006.6
20260504013038 85 153 2.0 6.0 0.00 0.00 0.00 26 1006.7
20260504011515 86 148 4.0 8.0 0.00 0.00 0.00 25 1006.8
20260504010113 86 193 3.0 6.0 0.00 0.00 0.00 23 1007.0
20260504004555 87 94 5.0 8.0 0.00 0.00 0.00 19 1007.2
20260504003054 87 16 6.0 9.0 0.00 0.00 0.00 17 1007.4
20260504001537 87 46 0.0 10.0 0.00 0.00 0.00 17 1007.6
20260504000037 88 91 0.0 3.0 0.00 0.00 0.00 17 1007.7
20260503234512 86 290 0.0 9.0 0.00 0.00 0.00 18 1007.9
20260503233010 86 318 5.0 8.0 0.00 0.00 0.00 19 1008.1
20260503231554 87 87 3.0 7.0 0.00 0.00 0.00 19 1008.3
20260503230049 86 79 8.0 16.0 0.00 0.00 0.00 19 1008.5
20260503224531 86 94 9.0 14.0 0.00 0.00 0.00 20 1008.6
20260503223027 86 51 3.0 13.0 0.00 0.00 0.00 21 1009.0
20260503221507 86 5 0.0 10.0 0.00 0.00 0.00 21 1009.1
20260503220007 85 96 1.0 10.0 0.00 0.00 0.00 20 1009.4
20260503214547 85 96 10.0 16.0 0.00 0.00 0.00 21 1009.6
20260503213047 85 195 6.0 11.0 0.00 0.00 0.00 22 1009.8
20260503211524 85 52 5.0 17.0 0.00 0.00 0.00 21 1010.1
20260503210023 85 103 3.0 12.0 0.00 0.00 0.00 21 1010.2
20260503204504 84 88 3.0 10.0 0.00 0.00 0.00 22 1010.4
20260503203001 84 110 10.0 12.0 0.00 0.00 0.00 21 1010.5